Flag for Canada

Past Weather in Victoria, British Columbia, Canada — Yesterday and Last 2 Weeks

Now
63 °F

Passing clouds.


Feels Like: 63 °F
Forecast: 63 / 52 °F
Wind: 6 mph from East

Location: Victoria Int. Airportb. C.

Current Time: Jul 5, 2020 at 11:23:26 am

Latest Report: Jul 5, 2020 at 10:00 am


Visibility: 30 mi

Pressure: 30.17 "Hg

Humidity: 73%

Dew Point: 54 °F

Location of VictoriaLocation

Past Weather in Victoria — Graph

°F

Victoria Temperature Yesterday

Maximum temperature yesterday: 64 °F (at 3:00 pm)
Minimum temperature yesterday: 52 °F (at 3:00 am)
Average temperature yesterday: 57 °F

High & Low Weather Summary for the Past Weeks

 TemperatureHumidityPressure
High72 °F (Jun 24, 12:00 pm)100% (Jun 20, 10:00 am)30.24 "Hg (Jun 20, 10:00 am)
Low50 °F (Jun 22, 5:00 am)43% (Jun 21, 7:00 pm)29.83 "Hg (Jun 28, 2:00 am)
Average60 °F78%30.01 "Hg
* Reported Jun 20 10:00 am — Jul 5 10:00 am, Victoria. Weather by CustomWeather, © 2020

Note: Actual official high and low records may vary slightly from our data, if they occured in-between our weather recording intervals... More about our weather records

Victoria Weather History for the Previous 24 Hours

Scroll right to see more
 ConditionsComfort  
Time TempWeatherWind HumidityBarometerVisibility
10:00 am
Sun, Jul 5
63 °FPassing clouds.6 mph73%30.17 "Hg30 mi
9:00 am61 °FPassing clouds.3 mph72%30.18 "Hg30 mi
8:00 am57 °FPassing clouds.6 mph94%30.19 "Hg30 mi
7:00 am55 °FPassing clouds.8 mph100%30.19 "Hg30 mi
5:00 am52 °FPassing clouds.6 mph100%30.19 "Hg30 mi
4:00 am52 °FPassing clouds.8 mph100%30.19 "Hg30 mi
3:00 am52 °FClear.7 mph100%30.19 "Hg30 mi
2:00 am52 °FPassing clouds.3 mph100%30.19 "Hg30 mi
1:00 am52 °FClear.3 mph100%30.19 "Hg30 mi
12:00 am52 °FPassing clouds.3 mph100%30.19 "Hg30 mi
11:00 pm
Sat, Jul 4
54 °FPassing clouds.No wind94%30.20 "Hg30 mi
10:00 pm55 °FPassing clouds.2 mph94%30.19 "Hg30 mi
9:00 pm59 °FScattered clouds.No wind72%30.19 "Hg30 mi
8:00 pm63 °FPassing clouds.3 mph64%30.20 "Hg30 mi
7:00 pm64 °FPassing clouds.6 mph60%30.20 "Hg30 mi
6:00 pm64 °FPassing clouds.7 mph60%30.20 "Hg30 mi
5:00 pm64 °FScattered clouds.8 mph64%30.21 "Hg30 mi
4:00 pm63 °FScattered clouds.7 mph68%30.22 "Hg30 mi
3:00 pm64 °FPartly sunny.3 mph64%30.22 "Hg30 mi
2:00 pm63 °FPartly sunny.6 mph68%30.22 "Hg30 mi
1:00 pm59 °FPartly sunny.5 mph88%30.22 "Hg30 mi
12:00 pm57 °FPartly sunny.6 mph94%30.22 "Hg30 mi
11:00 am59 °FPartly sunny.7 mph88%30.21 "Hg30 mi
Weather by CustomWeather, © 2020

See weather overview